Home   Weather   Shantou   Past weeks

Flag for China Past Weather in Shantou, Guangdong, China — Yesterday and Last 2 Weeks

Now
86 °F

Scattered clouds.


Feels Like: 99 °F
Forecast: 80 / 98 °F
Wind: 1 mph from North

Location: Shantou Airport

Current Time: Aug 19, 2017 at 10:06:16 am

Latest Report: Aug 19, 2017 at 9:00 am


Visibility: 4 mi

Pressure: 29.89 "Hg

Humidity: 79%

Dew Point: 79 °F

Location of ShantouLocation

Past Weather in Shantou — Graph

°F

Shantou Temperature Yesterday

Maximum temperature yesterday: 97 °F (at 2:00 pm)
Minimum temperature yesterday: 81 °F (at 5:00 am)
Average temperature yesterday: 87 °F

High & Low Weather Summary for the Past Weeks

 TemperatureHumidityPressure
High99 °F (Aug 16, 4:00 pm)100% (Aug 5, 2:00 am)29.89 "Hg (Aug 5, 2:00 am)
Low79 °F (Aug 5, 4:00 am)44% (Aug 15, 3:00 pm)29.59 "Hg (Aug 4, 3:00 pm)
Average87 °F78%29.74 "Hg
* Reported Aug 4 8:00 am — Aug 19 8:00 am, Shantou. Weather by CustomWeather, © 2017

Note: Actual official high and low records may vary slightly from our data, if they occured in-between our weather recording intervals... More about our weather records

Advertising

Shantou Weather History for the Previous 24 Hours

Scroll right to see more
 ConditionsComfort  
Time TempWeatherWind HumidityBarometerVisibility
8:00 am
Sat, Aug 19
84 °FPassing clouds.3 mph84%29.89 "Hg4 mi
7:00 am82 °FFog.3 mph94%29.86 "Hg3 mi
6:00 am81 °FFog.No wind94%29.86 "Hg3 mi
5:00 am81 °FPassing clouds.No wind94%29.83 "Hg4 mi
4:00 am81 °FPassing clouds.1 mph94%29.83 "Hg4 mi
3:00 am82 °FPassing clouds.3 mph89%29.83 "HgN/A
2:00 am82 °FClear.6 mph89%29.86 "Hg10 mi
1:00 am84 °FClear.1 mph84%29.86 "Hg10 mi
12:00 am84 °FClear.3 mph89%29.86 "Hg10 mi
11:00 pm
Fri, Aug 18
84 °FPassing clouds.3 mph84%29.86 "HgN/A
10:00 pm86 °FClear.3 mph75%29.86 "Hg10 mi
9:00 pm86 °FPassing clouds.3 mph75%29.86 "HgN/A
8:00 pm86 °FClear.6 mph75%29.83 "Hg10 mi
7:00 pm88 °FPassing clouds.8 mph66%29.80 "HgN/A
6:00 pm90 °FPassing clouds.8 mph63%29.80 "HgN/A
5:00 pm91 °FPassing clouds.13 mph63%29.77 "HgN/A
4:00 pm93 °FPassing clouds.13 mph59%29.80 "HgN/A
3:00 pm95 °FPassing clouds.10 mph60%29.80 "HgN/A
2:00 pm97 °FPassing clouds.6 mph53%29.83 "HgN/A
1:00 pm93 °FScattered clouds.6 mph59%29.83 "HgN/A
12:00 pm93 °FScattered clouds.3 mph63%29.86 "Hg5 mi
11:00 am90 °FPassing clouds.1 mph67%29.86 "HgN/A
10:00 am88 °FPassing clouds.3 mph75%29.86 "HgN/A
Weather by CustomWeather, © 2017

See weather overviewHow to use our weather pages